Weather reports worldwide

Advertisment
Tampico/Tamps, Mexico (76548): temperature & dewpoint: 13.11.2019 11:00:00 - 19.11.2019 11:00:00 (CST)Tampico/Tamps, Mexico (76548): wind speed: 13.11.2019 11:00:00 - 19.11.2019 11:00:00 (CST)Tampico/Tamps, Mexico (76548): wind direction: 13.11.2019 11:00:00 - 19.11.2019 11:00:00 (CST)Tampico/Tamps, Mexico (76548): reduced air pressure: 13.11.2019 11:00:00 - 19.11.2019 11:00:00 (CST)Tampico/Tamps, Mexico (76548): visibility: 13.11.2019 11:00:00 - 19.11.2019 11:00:00 (CST)
Date & Time tt [°C] td [°C] ff [km/h] ff [kn] dd ppp [hPa] vv [km]
19.11.2019 11:00:00 - - - - - - -
19.11.2019 10:00:00 - - - - - - -
19.11.2019 09:00:00 21,6 20,4 4 2 E 1016,6 18
19.11.2019 08:00:00 - - - - - - -
19.11.2019 07:00:00 - - - - - - -
19.11.2019 06:00:00 20,0 19,7 4 2 NNW 1015,0 10
19.11.2019 05:00:00 - - - - - - -
19.11.2019 04:00:00 - - - - - - -
19.11.2019 03:00:00 19,8 18,6 4 2 NW 1014,7 10
19.11.2019 02:00:00 - - - - - - -
19.11.2019 01:00:00 - - - - - - -
19.11.2019 00:00:00 21,8 20,1 4 2 ESE 1015,6 10
18.11.2019 23:00:00 - - - - - - -
18.11.2019 22:00:00 - - - - - - -
18.11.2019 21:00:00 22,2 20,2 11 6 E 1015,4 10
18.11.2019 20:00:00 - - - - - - -
18.11.2019 19:00:00 - - - - - - -
18.11.2019 18:00:00 23,8 20,6 11 6 E 1013,4 20
18.11.2019 17:00:00 - - - - - - -
18.11.2019 16:00:00 - - - - - - -
18.11.2019 15:00:00 27,6 20,2 7 4 ENE 1014,0 24
18.11.2019 14:00:00 - - - - - - -
18.11.2019 13:00:00 - - - - - - -
18.11.2019 12:00:00 27,0 19,8 7 4 SSW 1017,5 20
18.11.2019 11:00:00 - - - - - - -
18.11.2019 10:00:00 - - - - - - -
18.11.2019 09:00:00 21,0 18,0 4 2 SSW 1018,0 18
18.11.2019 08:00:00 - - - - - - -
18.11.2019 07:00:00 - - - - - - -
18.11.2019 06:00:00 18,2 17,9 4 2 NNW 1017,0 10
18.11.2019 05:00:00 - - - - - - -
18.11.2019 04:00:00 - - - - - - -
18.11.2019 03:00:00 - - - - - - -
18.11.2019 02:00:00 - - - - - - -
18.11.2019 01:00:00 - - - - - - -
18.11.2019 00:00:00 19,8 19,2 4 2 ENE 1017,3 10
17.11.2019 23:00:00 - - - - - - -
17.11.2019 22:00:00 - - - - - - -
17.11.2019 21:00:00 19,8 19,2 7 4 ESE 1017,3 10
17.11.2019 20:00:00 - - - - - - -
17.11.2019 19:00:00 - - - - - - -
17.11.2019 18:00:00 23,2 18,5 7 4 E 1015,5 24
17.11.2019 17:00:00 - - - - - - -
17.11.2019 16:00:00 - - - - - - -
17.11.2019 15:00:00 27,2 16,7 7 4 ENE 1014,9 24
17.11.2019 14:00:00 - - - - - - -
17.11.2019 13:00:00 - - - - - - -
17.11.2019 12:00:00 25,2 16,0 4 2 SSW 1017,2 24
17.11.2019 11:00:00 - - - - - - -
17.11.2019 10:00:00 - - - - - - -
17.11.2019 09:00:00 19,0 15,5 4 2 WSW 1018,5 20
17.11.2019 08:00:00 - - - - - - -
17.11.2019 07:00:00 - - - - - - -
17.11.2019 06:00:00 16,8 16,2 7 4 WNW 1017,8 10
17.11.2019 05:00:00 - - - - - - -
17.11.2019 04:00:00 - - - - - - -
17.11.2019 03:00:00 15,2 14,2 4 2 WNW 1018,1 10
17.11.2019 02:00:00 - - - - - - -
17.11.2019 01:00:00 - - - - - - -
17.11.2019 00:00:00 17,0 15,4 4 2 N 1020,4 10
16.11.2019 23:00:00 - - - - - - -
16.11.2019 22:00:00 - - - - - - -
16.11.2019 21:00:00 16,4 13,8 4 2 ESE 1020,9 10
16.11.2019 20:00:00 - - - - - - -
16.11.2019 19:00:00 - - - - - - -
16.11.2019 18:00:00 21,0 13,6 7 4 E 1018,9 22
16.11.2019 17:00:00 - - - - - - -
16.11.2019 16:00:00 - - - - - - -
16.11.2019 15:00:00 24,2 11,4 4 2 SSW 1019,0 24
16.11.2019 14:00:00 - - - - - - -
16.11.2019 13:00:00 - - - - - - -
16.11.2019 12:00:00 22,2 12,4 7 4 SW 1023,6 25
16.11.2019 11:00:00 - - - - - - -
16.11.2019 10:00:00 - - - - - - -
16.11.2019 09:00:00 16,2 10,3 4 2 WSW 1024,9 25
16.11.2019 08:00:00 - - - - - - -
16.11.2019 07:00:00 - - - - - - -
16.11.2019 06:00:00 12,4 7,9 7 4 NW 1022,0 10
16.11.2019 05:00:00 - - - - - - -
16.11.2019 04:00:00 - - - - - - -
16.11.2019 03:00:00 13,0 7,3 7 4 N 1022,8 10
16.11.2019 02:00:00 - - - - - - -
16.11.2019 01:00:00 - - - - - - -
16.11.2019 00:00:00 15,0 8,9 14 8 N 1024,8 10
15.11.2019 23:00:00 - - - - - - -
15.11.2019 22:00:00 - - - - - - -
15.11.2019 21:00:00 16,4 11,6 14 8 NNE 1025,8 10
15.11.2019 20:00:00 - - - - - - -
15.11.2019 19:00:00 - - - - - - -
15.11.2019 18:00:00 19,8 14,0 11 6 NNE 1024,4 25
15.11.2019 17:00:00 - - - - - - -
15.11.2019 16:00:00 - - - - - - -
15.11.2019 15:00:00 23,8 12,1 7 4 SSW 1024,7 25
15.11.2019 14:00:00 - - - - - - -
15.11.2019 13:00:00 - - - - - - -
15.11.2019 12:00:00 19,6 10,8 11 6 W 1028,1 25
15.11.2019 11:00:00 - - - - - - -
15.11.2019 10:00:00 - - - - - - -
15.11.2019 09:00:00 15,6 11,1 7 4 NW 1028,4 25
15.11.2019 08:00:00 - - - - - - -
15.11.2019 07:00:00 - - - - - - -
15.11.2019 06:00:00 11,0 9,9 4 2 NNW 1026,1 10
15.11.2019 05:00:00 - - - - - - -
15.11.2019 04:00:00 - - - - - - -
15.11.2019 03:00:00 13,0 10,1 11 6 N 1024,5 10
15.11.2019 02:00:00 - - - - - - -
15.11.2019 01:00:00 - - - - - - -
15.11.2019 00:00:00 15,0 11,2 25 14 N 1024,6 10
14.11.2019 23:00:00 - - - - - - -
14.11.2019 22:00:00 - - - - - - -
14.11.2019 21:00:00 17,8 16,6 18 10 NNE 1023,2 10
14.11.2019 20:00:00 - - - - - - -
14.11.2019 19:00:00 - - - - - - -
14.11.2019 18:00:00 19,6 16,8 18 10 NNE 1020,1 24
14.11.2019 17:00:00 - - - - - - -
14.11.2019 16:00:00 - - - - - - -
14.11.2019 15:00:00 21,6 16,2 14 8 NNE 1019,4 22
14.11.2019 14:00:00 - - - - - - -
14.11.2019 13:00:00 - - - - - - -
14.11.2019 12:00:00 21,0 14,0 7 4 N 1020,9 25
14.11.2019 11:00:00 - - - - - - -
14.11.2019 10:00:00 - - - - - - -
14.11.2019 09:00:00 16,0 13,0 7 4 WSW 1020,3 25
14.11.2019 08:00:00 - - - - - - -
14.11.2019 07:00:00 - - - - - - -
14.11.2019 06:00:00 14,0 13,7 4 2 SE 1018,5 10
14.11.2019 05:00:00 - - - - - - -
14.11.2019 04:00:00 - - - - - - -
14.11.2019 03:00:00 13,4 12,7 7 4 WNW 1020,4 10
14.11.2019 02:00:00 - - - - - - -
14.11.2019 01:00:00 - - - - - - -
14.11.2019 00:00:00 13,8 11,4 4 2 NW 1021,0 10
13.11.2019 23:00:00 - - - - - - -
13.11.2019 22:00:00 - - - - - - -
13.11.2019 21:00:00 15,4 9,8 7 4 WNW 1021,4 10
13.11.2019 20:00:00 - - - - - - -
13.11.2019 19:00:00 - - - - - - -
13.11.2019 18:00:00 15,4 10,1 7 4 W 1020,9 24
13.11.2019 17:00:00 - - - - - - -
13.11.2019 16:00:00 - - - - - - -
13.11.2019 15:00:00 15,8 8,1 7 4 SSW 1021,7 25
13.11.2019 14:00:00 - - - - - - -
13.11.2019 13:00:00 - - - - - - -
13.11.2019 12:00:00 14,8 7,8 7 4 WSW 1025,8 25
13.11.2019 11:00:00 - - - - - - -

tt = temperature
td = dewpoint
ff = wind speed
dd = wind direction
ppp = reduced air pressure
vv = visibility

Next stations